Regional Weather Roundup
Issued by NWS

Home | Current Version | Previous Version | Graphics & Text | Print | Product List | Glossary On
Versions: 1 2 3 4 5 6 7 8 9 10 11 12 13 14 15 16 17 18 19 20 21 22 23 24 25 26 27 28 29 30 31 32 33 34 35 36 37 38 39 40 41 42 43 44 45 46 47 48 49 50
974
ASUS43 KBIS 041302
RWRND

NORTH DAKOTA REGIONAL WEATHER ROUNDUP
NATIONAL WEATHER SERVICE BISMARCK ND
800 AM CDT WED MAY 04 2016

NOTE: "FAIR" INDICATES FEW OR NO CLOUDS BELOW 12,000 FEET WITH NO
SIGNIFICANT WEATHER AND/OR OBSTRUCTIONS TO VISIBILITY.


NDZ001>003-009>011-017-041400-
NORTHWEST NORTH DAKOTA

CITY           SKY/WX    TMP DP  RH WIND       PRES   REMARKS
WILLISTON      SUNNY     51  44  77 CALM      30.07R
MINOT          MOSUNNY   51  33  50 SE6       30.07F
MINOT AFB      MOSUNNY   47  37  69 SE6       30.06F
$$

NDZ018>021-031>035-040>046-041400-
SOUTHWEST NORTH DAKOTA

CITY           SKY/WX    TMP DP  RH WIND       PRES   REMARKS
BISMARCK       SUNNY     43  37  79 CALM      30.13R
DICKINSON      MOSUNNY   51  36  56 SW5       30.09S
GARRISON         N/A     48  33  56 S5        30.10S
HETTINGER ARPT SUNNY     45  40  82 W3        30.14R
$$

NDZ004>008-012>016-024-026-027-054-041400-
NORTHEAST NORTH DAKOTA

CITY           SKY/WX    TMP DP  RH WIND       PRES   REMARKS
GRAND FORKS    MOSUNNY   44  36  73 NW9       30.10R
GRND FRKS AFB  SUNNY     45  36  70 N9        30.11R
DEVILS LAKE    SUNNY     43  38  82 CALM      30.13R
$$

NDZ022-023-025-028>030-036>039-047>053-041400-
SOUTHEAST NORTH DAKOTA

CITY           SKY/WX    TMP DP  RH WIND       PRES   REMARKS
FARGO          SUNNY     45  33  63 N9        30.08R
JAMESTOWN      SUNNY     45  35  68 NW8       30.11R
$$





USA.gov is the U.S. government's official web portal to all federal, state and local government web resources and services.